User: anonymous   Login
Location: Eaton Estates
(41.3089°N, 82.0057°W)
Time: 15:35:25
(UTC+00:00)
Language:

Cosmos 1908 - Orbit

View from above orbital plane
View from above orbital plane
View from above satellite
View from above satellite

Ground track
Ground track

The orbit data is extracted from the following two-line orbital elements,

1 18748U 88001A   21264.90643690  .00001082  00000-0  55404-4 0  9990
2 18748  82.4720 320.9709 0011664 261.9922  97.9987 15.15539027841293
Epoch (UTC): 21 September 2021 21:45:16
Eccentricity: 0.0011664
inclination: 82.4720°
perigee height: 511 km
apogee height: 527 km
right ascension of ascending node: 320.9709°
argument of perigee: 261.9922°
revolutions per day: 15.15539027
mean anomaly at epoch: 97.9987°
orbit number at epoch: 84129

The dashed part of the orbit path shows where the satellite is in the earth's shadow,  

DLR